Location: *
(33.2833°N, 8.3333°W)
Time: 06:21:53
(UTC+00:00)

Daily predictions for brighter satellites

Satellite Brightness Start Highest point End
(mag) Time Altitude Azimuth Time Altitude Azimuth Time Altitude Azimuth
Meteor 2-15 4.5 18:45:49 10° S 18:51:56 75° E 18:58:04 10° N
BREEZE-M DEB (TANK) 2.3 18:50:06 10° NW 18:52:26 54° NE 18:58:12 10° ESE
Cosmos 2333 Rocket 2.5 18:47:26 10° N 18:52:58 49° ENE 18:58:28 10° SE
Ariane Rocket 3.9 18:51:13 10° SE 18:55:24 27° ENE 18:59:37 10° NNE
Cosmos 2154 Rocket 4.4 18:52:34 10° N 18:58:20 39° E 19:04:04 10° SSE
CZ-4 R/B 4.5 18:55:09 10° SSE 18:59:18 88° ENE 19:03:27 10° NNW
Cosmos 1536 Rocket 3.5 18:54:58 10° N 18:59:18 82° E 19:03:37 10° S
YAOGAN 1 2.6 18:56:13 10° SSE 19:00:28 63° ENE 19:04:45 10° N
Meteor 1-12 Rocket 4.3 18:56:57 10° S 19:02:42 88° W 19:08:23 10° N
Cosmos 389 Rocket 4.3 19:02:19 10° NE 19:03:58 13° ENE 19:05:26 11° E
GP-B 3.3 19:01:36 10° NNE 19:05:54 49° E 19:10:12 10° SSE
DELTA 2 R/B (1) 4.0 19:02:33 10° W 19:08:06 62° NNW 19:13:41 10° ENE
DMSP B5D1-3 4.5 19:03:32 10° NNE 19:08:37 73° ESE 19:13:42 10° S
USA 32 4.3 19:03:26 10° N 19:08:40 76° W 19:13:53 10° S
Cosmos 2056 Rocket 3.8 19:03:49 10° S 19:08:58 47° ESE 19:14:08 10° NNE
Cosmos 1544 3.1 19:06:01 10° S 19:09:35 81° W 19:13:11 10° N
Cosmos 2184 Rocket 4.1 19:06:43 10° N 19:13:00 89° E 19:19:20 10° S
SAR-Lupe-2 4.4 19:11:48 10° NE 19:14:54 27° E 19:17:59 10° SSE
ASTEX 1 3.9 19:15:12 10° NNE 19:19:39 35° E 19:24:06 10° SSE
Cosmos 1624 Rocket 4.0 19:15:08 10° S 19:20:15 63° ESE 19:25:22 10° NNE
Cosmos 1707 3.2 19:17:35 10° N 19:21:16 38° E 19:24:55 10° SSE
ISS -1.3 19:19:30 10° W 19:22:05 21° NW 19:24:42 10° NNE
Cosmos 2219 Rocket 2.2 19:17:37 10° NNW 19:23:15 88° ENE 19:28:51 10° SSE
SL-16 R/B 4.0 19:22:47 10° NNE 19:24:56 12° NE 19:26:04 11° ENE
Cosmos 2084 Rocket 3.9 19:21:14 10° SW 19:25:38 69° WNW 19:30:06 10° NNE
Nadezhda 1 Rocket 4.2 19:20:50 10° S 19:26:53 74° W 19:32:58 10° N
NOAA 11 4.2 19:23:54 10° SSE 19:29:18 63° ENE 19:34:44 10° N
Cosmos 2082 4.0 19:28:13 10° S 19:33:34 43° ESE 19:38:57 10° NE
Okean 1-7 Rocket 4.4 19:30:05 10° NNE 19:34:03 31° E 19:36:14 20° SE
ATLAS 2AS CENTAUR R/B 2.8 19:28:12 10° NNW 19:35:44 89° ENE 19:42:33 10° SSE
USA 186 3.6 19:36:58 19° NE 19:36:58 19° NE 19:38:47 10° NNE
SL-4 R/B 3.7 19:35:02 10° SSE 19:36:20 14° SSE 19:36:20 14° SSE
Cosmos 1295 Rocket 4.4 19:33:28 10° N 19:39:33 63° E 19:45:33 10° SSE
ARGOS 4.5 19:39:17 19° ENE 19:39:46 19° ENE 19:43:29 10° NNE
COSMOS 2428 3.3 19:38:11 10° NNW 19:43:44 58° WSW 19:49:18 10° S
Cosmos 1544 Rocket 4.1 19:39:48 10° SSE 19:43:51 36° E 19:47:56 10° NNE
Cosmos 1455 Rocket 3.3 19:39:45 10° SSE 19:43:57 45° E 19:48:12 10° NNE
CZ-2D R/B 3.5 19:40:40 10° S 19:44:25 68° W 19:48:12 10° NNW
Meteor 1-4 Rocket 3.2 19:41:28 10° NNE 19:44:21 32° ENE 19:44:21 32° ENE
CZ-4 R/B 3.9 19:42:55 10° SSW 19:45:57 22° W 19:49:04 10° NW
SJ-6B 3.9 19:46:28 27° ENE 19:46:28 27° ENE 19:49:45 10° NNE
deb Centaur AC-2 4.4 19:43:22 10° W 19:47:36 50° S 19:49:18 31° SE
Cosmos 2227 Rocket 2.2 19:42:32 10° SSW 19:48:11 83° WNW 19:53:52 10° NNE
SPOT 3 Rocket 4.2 19:49:57 30° E 19:51:16 34° ENE 19:55:52 10° N
BREEZE-M DEB (TANK) 3.0 19:52:57 10° WNW 19:55:02 41° SW 19:55:56 30° S
CZ-3 Stage 3 3.2 19:55:17 10° SSW 19:56:16 12° S 19:56:16 12° S
Lacrosse 5 2.3 19:53:05 10° S 19:57:44 37° ESE 19:57:56 37° ESE
Cosmos 2297 Rocket 2.7 19:52:47 10° SSW 19:58:22 63° WNW 20:04:00 10° NNE
Cosmos 1452 Rocket 3.6 19:58:05 10° S 20:03:08 52° ESE 20:08:13 10° NNE
Cosmos 405 Rocket 3.6 20:04:46 10° SSW 20:08:19 46° W 20:11:54 10° N
Lacrosse 5 rocket 3.8 20:06:08 10° W 20:08:35 17° NW 20:11:05 10° N
Cosmos 676 Rocket 4.3 20:05:14 10° N 20:10:15 45° ENE 20:10:26 44° ENE
Cosmos 1939 Rocket 4.4 20:08:49 10° SSW 20:12:19 33° W 20:15:50 10° NNW
MOS 1 4.3 20:07:06 11° SSE 20:12:39 85° WSW 20:18:23 10° NNW
Cosmos 1023 Rocket 4.3 20:09:19 10° N 20:14:24 65° ENE 20:15:12 56° ESE
Cosmos 2181 Rocket 4.2 20:13:52 10° SSW 20:20:04 73° W 20:26:24 10° N
H-2A R/B 2.4 20:21:02 45° NE 20:21:02 45° NE 20:25:08 10° N
Meteor 2-17 Rocket 4.3 20:14:49 10° N 20:20:54 89° E 20:25:03 21° S
In-Cosmos 22 4.3 20:17:13 10° NNW 20:22:38 74° W 20:26:39 19° S
Cosmos 1190 Rocket 4.2 20:20:57 10° NNW 20:26:12 70° WSW 20:28:12 38° S
Cosmos 2341 Rocket 4.4 20:22:35 10° NNW 20:28:43 62° W 20:34:48 10° S
Cosmos 2237 Rocket 2.7 20:30:58 10° NNW 20:36:32 56° WSW 20:38:53 33° SSW
Resurs 01 Rocket 3.9 20:40:24 15° N 20:40:24 15° N 20:41:16 10° N
Cosmos 864 Rocket 4.3 20:35:03 10° N 20:41:20 84° E 20:42:16 67° SSE
Cosmos 2366 rocket 3.9 20:35:01 10° N 20:41:24 88° E 20:42:45 59° S
Cosmos 2218 Rocket 3.9 20:35:58 10° N 20:42:20 85° W 20:44:05 51° S
ADEOS Rocket 3.5 20:36:10 10° NNE 20:43:49 85° WNW 20:51:36 10° SSW
Meteor 1-24 Rocket 3.8 20:40:02 10° N 20:45:28 73° NE 20:45:28 73° NE
SL-8 Rocket 4.4 20:43:29 10° NNW 20:49:32 60° W 20:52:34 30° SSW
DELTA 2 R/B (1) 4.4 20:49:46 10° WNW 20:54:57 43° N 20:54:57 43° N
FALCON 9 R/B 4.4 20:04:54 10° W 20:57:49 84° SSW 21:03:03 51° ESE
SL-16 R/B 3.0 21:04:01 10° NNW 21:07:58 47° NNW 21:07:58 47° NNW
ARGOS 4.4 21:20:48 39° WNW 21:20:48 39° WNW 21:24:45 10° NNW
Lacrosse 5 4.5 21:36:17 10° WSW 21:37:16 15° W 21:37:16 15° W
